Regional Weather Roundup
Issued by NWS Newport/Morehead, NC

Current Version | Previous Version | Graphics & Text | Print | Product List | Glossary On
Versions: 1 2 3 4 5 6 7 8 9 10 11 12 13 14 15 16 17 18 19 20 21 22 23 24 25 26 27 28 29 30 31 32 33 34 35 36 37 38 39 40 41 42 43 44 45 46 47 48 49 50
000 ASUS42 KMHX 261113 RWRMHX WEATHER ROUNDUP FOR EASTERN NORTH CAROLINA NATIONAL WEATHER SERVICE NEWPORT/MOREHEAD CITY NC 700 AM EDT MON SEP 26 2016 NOTE: "FAIR" INDICATES FEW OR NO CLOUDS BELOW 12,000 FEET WITH NO SIGNIFICANT WEATHER AND/OR OBSTRUCTIONS TO VISIBILITY NCZ015>017-031-032-045>047-102-103-261200- NORTH COAST CITY SKY/WX TMP DP RH WIND PRES REMARKS EDENTON CLEAR 62 62 100 NE3 30.14S ELIZABETH CITY CLEAR 60 58 92 CALM 30.14S KITTY HAWK NOT AVBL MANTEO CLEAR 65 58 76 NE5 30.13S $$ NCZ045>047-081-094-103-104-261200- CENTRAL COAST CITY SKY/WX TMP DP RH WIND PRES REMARKS FRISCO CLEAR 68 61 78 NE5 30.12R $$ NCZ095-097-098-100-101-261200- SOUTHERN COAST CITY SKY/WX TMP DP RH WIND PRES REMARKS BEAUFORT CLEAR 67 63 87 NE6 30.11R CEDAR ISLAND NOT AVBL JACKSONVILLE MOCLDY 66 61 84 NE6 30.10F PINEY ISLAND SUNNY N/A N/A N/A NE8 30.11 WILMINGTON MOCLDY 66 62 87 NE8 30.09S $$ NCZ011>013-027>030-043-044-078>080-089-090>093-098-261200- COASTAL PLAIN CITY SKY/WX TMP DP RH WIND PRES REMARKS AHOSKIE CLOUDY 62 60 93 CALM 30.14S FOG CLINTON CLOUDY 66 62 87 CALM 30.11F ELIZABETHTOWN PTCLDY 66 62 86 CALM 30.09F GOLDSBORO MOCLDY 64 64 98 NE1 30.11R GREENVILLE CLOUDY 64 61 88 E3 30.14S HAVELOCK CLEAR 67 62 84 NE10 30.12S KENANSVILLE CLEAR 63 61 94 CALM 30.11F KINSTON CLEAR 64 61 88 E5 30.12F NEW BERN CLEAR 65 60 84 E3 30.13S RICHLANDS NOT AVBL ROCKY MOUNT CLOUDY 63 63 100 CALM 30.14R WASHINGTON MOCLDY 62 59 91 CALM 30.13S WHITEVILLE NOT AVBL $$ AMZ130-135-150-152-154-156-158-170-250-252-270-ANZ085-086-088-633-658-670-261200- MARINE OBSERVATIONS STATION/POSITION TIME TEMP WIND PRES WAVE SWELL AIR SEA DIR/SP/G HT/PER HT/PER (UTC) (F) (DEG/KT/KT) (MB) (FT/S) (FT/S) CHESAPEAKE LIGHT NOT AVBL 64 E VA BEACH 1050 70 73 50/ 6/ 10 1020.3 3/ 7 3/ 7 DUCK 1042 70 76 50/ 10/ 12 1019.9 2 E DUCK 1041 76 N/A 3/ 9 OREGON INLET 1042 69 76 40/ 7/ 10 1020.0 13E OREGON INLT NOT AVBL HATTERAS CG 1042 71 77 40/ 6/ 9 1019.4 DIAMOND BUOY 1050 74 84 40/ 14/ 17 1018.8 3/ 9 2/ 9 CAPE LOOKOUT 1100 73 40/ 14/ 17 1019.0 BEAUFORT LAB 1048 68 77 30/ 5/ 7 1018.8 30 SE NEW RVR IN 1008 76 81 50/ 14/ 19 1018.4 30 SE NEW RVR IN 1055 81 N/A 3/10 27 SE WRIGHTSVLE 1008 78 81 50/ 14/ 19 1018.3 5 SE WRIGHTSVLE 1008 76 80 70/ 14/ 19 1019.2 225 S CAPE HAT 1050 81 84 60/ 10/ 12 1016.8 4/ 8 3/ 8 41 SE CHARLESTON 1050 80 82 100/ 12/ 14 1016.4 5/ 7 3/ 7 $$

USA.gov is the U.S. government's official web portal to all federal, state and local government web resources and services.